QPF
0.00 0.00 0.00 0.00 0.00 0.00 0.00 0.00 0.00 0.00 0.00 0.00 0.00 0.00 0.00 0.00 0.00 0.00 0.00 0.00 0.00 0.00 0.00 0.00 0.00 0.01 0.00 0.00 0.02 0.07 0.15 0.20 0.21 0.21 0.17 0.15 0.13 0.12 0.08 0.05 0.05 0.07 0.09 0.12
0.00 0.00 0.00 0.00 0.00 0.00 0.00 0.00 0.00 0.00 0.00 0.00 0.00 0.00 0.00 0.00 0.00 0.00 0.00 0.00 0.00 0.00 0.00 0.00 0.00 0.00 0.00 0.02 0.04 0.11 0.19 0.25 0.25 0.27 0.28 0.28 0.29 0.21 0.14 0.13 0.13 0.12 0.16 0.18
0.00 0.00 0.00 0.00 0.00 0.00 0.00 0.00 0.00 0.00 0.00 0.00 0.00 0.00 0.00 0.00 0.00 0.00 0.00 0.00 0.00 0.00 0.00 0.00 0.00 0.00 0.01 0.02 0.05 0.08 0.14 0.21 0.25 0.28 0.29 0.26 0.28 0.18 0.19 0.18 0.20 0.20 0.24 0.25
0.00 0.00 0.00 0.00 0.00 0.00 0.00 0.00 0.00 0.00 0.00 0.00 0.00 0.00 0.00 0.00 0.00 0.00 0.00 0.01 0.01 0.01 0.00 0.00 0.00 0.01 0.01 0.01 0.02 0.04 0.08 0.12 0.17 0.22 0.22 0.22 0.22 0.19 0.24 0.31 0.31 0.27 0.25 0.24
0.00 0.00 0.00 0.00 0.00 0.00 0.00 0.00 0.00 0.00 0.00 0.00 0.00 0.00 0.00 0.00 0.00 0.00 0.01 0.03 0.02 0.01 0.00 0.00 0.00 0.01 0.01 0.01 0.01 0.01 0.04 0.06 0.11 0.14 0.17 0.20 0.21 0.23 0.27 0.33 0.32 0.28 0.27 0.23
0.00 0.00 0.00 0.00 0.00 0.00 0.00 0.00 0.00 0.00 0.00 0.00 0.00 0.00 0.00 0.00 0.00 0.00 0.01 0.01 0.00 0.00 0.00 0.00 0.00 0.00 0.00 0.00 0.00 0.00 0.01 0.04 0.06 0.08 0.11 0.13 0.14 0.17 0.19 0.22 0.26 0.26 0.26 0.22
0.00 0.00 0.00 0.00 0.00 0.00 0.00 0.00 0.00 0.00 0.00 0.00 0.00 0.00 0.00 0.00 0.00 0.00 0.00 0.00 0.00 0.00 0.00 0.00 0.00 0.00 0.00 0.00 0.00 0.00 0.01 0.02 0.03 0.05 0.08 0.09 0.11 0.12 0.13 0.18 0.23 0.24 0.24 0.22
0.00 0.00 0.00 0.00 0.00 0.00 0.00 0.00 0.00 0.00 0.00 0.00 0.00 0.00 0.00 0.00 0.00 0.00 0.00 0.00 0.00 0.00 0.00 0.00 0.00 0.00 0.00 0.00 0.00 0.00 0.01 0.02 0.03 0.05 0.06 0.07 0.09 0.10 0.12 0.16 0.18 0.21 0.20 0.20
0.00 0.00 0.00 0.00 0.00 0.00 0.00 0.00 0.00 0.00 0.00 0.00 0.00 0.00 0.00 0.00 0.00 0.00 0.00 0.00 0.00 0.00 0.00 0.00 0.00 0.00 0.00 0.00 0.00 0.01 0.01 0.02 0.03 0.04 0.05 0.06 0.07 0.09 0.10 0.13 0.15 0.18 0.18 0.18
0.00 0.00 0.00 0.00 0.00 0.00 0.00 0.00 0.00 0.00 0.00 0.00 0.00 0.00 0.00 0.00 0.00 0.00 0.00 0.00 0.00 0.00 0.00 0.00 0.00 0.00 0.00 0.00 0.00 0.00 0.01 0.02 0.02 0.03 0.04 0.06 0.09 0.11 0.13 0.15 0.17 0.21 0.23 0.23
0.00 0.00 0.00 0.00 0.00 0.00 0.00 0.00 0.00 0.00 0.00 0.00 0.00 0.00 0.00 0.00 0.00 0.00 0.00 0.00 0.00 0.00 0.00 0.00 0.00 0.00 0.00 0.00 0.00 0.00 0.01 0.02 0.03 0.03 0.04 0.07 0.09 0.11 0.15 0.19 0.21 0.25 0.26 0.28
0.00 0.00 0.00 0.00 0.00 0.00 0.00 0.00 0.00 0.00 0.00 0.00 0.00 0.00 0.00 0.00 0.00 0.00 0.00 0.00 0.00 0.00 0.00 0.00 0.00 0.00 0.00 0.00 0.00 0.01 0.01 0.02 0.03 0.03 0.04 0.07 0.09 0.11 0.13 0.16 0.20 0.25 0.25 0.27
0.00 0.00 0.00 0.00 0.00 0.00 0.00 0.00 0.00 0.00 0.00 0.00 0.00 0.00 0.00 0.00 0.00 0.00 0.00 0.00 0.00 0.00 0.00 0.00 0.00 0.00 0.00 0.00 0.01 0.01 0.01 0.02 0.02 0.03 0.04 0.06 0.09 0.13 0.18 0.24 0.27 0.29 0.30 0.31
0.00 0.00 0.00 0.00 0.00 0.00 0.00 0.00 0.00 0.00 0.00 0.00 0.00 0.00 0.00 0.00 0.00 0.00 0.00 0.00 0.00 0.00 0.00 0.00 0.00 0.00 0.00 0.00 0.01 0.02 0.02 0.02 0.02 0.03 0.06 0.08 0.11 0.16 0.23 0.28 0.34 0.38 0.39 0.40
0.00 0.00 0.00 0.00 0.00 0.00 0.00 0.00 0.00 0.00 0.00 0.00 0.00 0.00 0.00 0.00 0.00 0.00 0.00 0.00 0.00 0.00 0.00 0.00 0.00 0.00 0.00 0.01 0.01 0.02 0.03 0.04 0.03 0.04 0.07 0.08 0.10 0.13 0.17 0.24 0.34 0.39 0.38 0.37
0.00 0.00 0.00 0.00 0.00 0.00 0.00 0.00 0.00 0.00 0.00 0.00 0.00 0.00 0.00 0.00 0.00 0.00 0.00 0.00 0.00 0.00 0.00 0.00 0.00 0.00 0.00 0.00 0.00 0.01 0.03 0.05 0.06 0.07 0.08 0.08 0.11 0.14 0.16 0.17 0.23 0.28 0.31 0.29
0.00 0.00 0.00 0.00 0.00 0.00 0.00 0.00 0.00 0.00 0.00 0.00 0.00 0.00 0.00 0.00 0.00 0.00 0.00 0.00 0.00 0.00 0.00 0.00 0.00 0.00 0.00 0.00 0.00 0.01 0.02 0.04 0.07 0.09 0.09 0.10 0.12 0.13 0.13 0.15 0.21 0.25 0.24 0.22
0.00 0.00 0.00 0.00 0.00 0.00 0.00 0.00 0.00 0.00 0.00 0.00 0.00 0.00 0.00 0.00 0.00 0.00 0.00 0.00 0.00 0.00 0.00 0.00 0.00 0.00 0.00 0.00 0.00 0.00 0.02 0.04 0.07 0.10 0.09 0.10 0.12 0.13 0.11 0.13 0.16 0.18 0.17 0.15
0.00 0.00 0.00 0.00 0.00 0.00 0.00 0.00 0.00 0.00 0.00 0.00 0.00 0.00 0.00 0.00 0.00 0.00 0.00 0.00 0.00 0.00 0.00 0.00 0.00 0.00 0.00 0.00 0.00 0.00 0.02 0.03 0.05 0.09 0.10 0.10 0.12 0.13 0.13 0.12 0.11 0.10 0.10 0.10
0.00 0.00 0.00 0.00 0.00 0.00 0.00 0.00 0.00 0.00 0.00 0.00 0.00 0.00 0.00 0.00 0.01 0.00 0.00 0.00 0.00 0.00 0.00 0.00 0.00 0.00 0.00 0.00 0.00 0.00 0.01 0.03 0.06 0.10 0.10 0.09 0.11 0.14 0.14 0.13 0.10 0.07 0.07 0.07
0.00 0.00 0.00 0.00 0.00 0.00 0.00 0.00 0.00 0.01 0.02 0.00 0.00 0.00 0.00 0.01 0.01 0.01 0.00 0.00 0.00 0.00 0.00 0.00 0.00 0.00 0.00 0.00 0.00 0.00 0.01 0.02 0.04 0.07 0.10 0.10 0.11 0.14 0.14 0.13 0.10 0.07 0.06 0.07
0.00 0.00 0.00 0.00 0.01 0.01 0.00 0.00 0.01 0.01 0.01 0.00 0.00 0.00 0.01 0.01 0.01 0.01 0.01 0.01 0.00 0.00 0.00 0.01 0.01 0.01 0.01 0.01 0.01 0.01 0.01 0.02 0.02 0.06 0.10 0.12 0.14 0.10 0.09 0.09 0.08 0.07 0.07 0.06
0.00 0.00 0.00 0.00 0.01 0.01 0.00 0.00 0.00 0.00 0.00 0.01 0.01 0.01 0.01 0.01 0.01 0.01 0.01 0.01 0.01 0.01 0.01 0.02 0.04 0.05 0.04 0.04 0.04 0.02 0.01 0.02 0.03 0.07 0.11 0.13 0.14 0.15 0.15 0.10 0.07 0.07 0.07 0.07
0.00 0.00 0.00 0.01 0.00 0.00 0.00 0.00 0.00 0.00 0.00 0.01 0.01 0.01 0.01 0.02 0.02 0.02 0.01 0.01 0.02 0.03 0.04 0.06 0.08 0.09 0.11 0.12 0.12 0.07 0.03 0.02 0.03 0.07 0.10 0.12 0.14 0.14 0.14 0.13 0.10 0.08 0.07 0.07
0.00 0.00 0.01 0.02 0.01 0.00 0.00 0.00 0.00 0.00 0.00 0.00 0.01 0.01 0.01 0.02 0.03 0.03 0.03 0.03 0.03 0.03 0.04 0.05 0.08 0.11 0.15 0.18 0.19 0.13 0.05 0.02 0.02 0.06 0.09 0.10 0.12 0.14 0.14 0.12 0.11 0.10 0.10 0.06
0.00 0.00 0.01 0.02 0.01 0.01 0.01 0.00 0.00 0.00 0.00 0.00 0.01 0.01 0.01 0.02 0.03 0.03 0.04 0.04 0.03 0.04 0.04 0.06 0.08 0.11 0.14 0.18 0.21 0.18 0.10 0.05 0.03 0.04 0.07 0.09 0.10 0.12 0.12 0.09 0.04 0.01 0.02 0.00
MSLP
1009.50 1009.81 1009.98 1010.01 1009.95 1009.82 1009.67 1009.50 1009.33 1009.12 1008.87 1008.55 1008.17 1007.74 1007.31 1006.91 1006.60 1006.40 1006.33 1006.37 1006.48 1006.62 1006.75 1006.83 1006.85 1006.84 1006.83 1006.85 1006.96 1007.16 1007.45 1007.79 1008.15 1008.46 1008.67 1008.75 1008.70 1008.54 1008.30 1008.06 1007.87 1007.76 1007.77 1007.90
1009.95 1010.16 1010.24 1010.21 1010.12 1010.00 1009.88 1009.77 1009.66 1009.50 1009.27 1008.95 1008.55 1008.09 1007.62 1007.20 1006.89 1006.74 1006.75 1006.89 1007.12 1007.38 1007.61 1007.75 1007.80 1007.77 1007.69 1007.62 1007.60 1007.68 1007.86 1008.11 1008.40 1008.65 1008.83 1008.87 1008.78 1008.56 1008.26 1007.94 1007.66 1007.48 1007.43 1007.51
1010.29 1010.39 1010.37 1010.29 1010.19 1010.11 1010.07 1010.05 1010.02 1009.94 1009.76 1009.45 1009.02 1008.51 1007.99 1007.52 1007.19 1007.05 1007.10 1007.32 1007.65 1008.02 1008.34 1008.56 1008.65 1008.61 1008.49 1008.33 1008.21 1008.17 1008.24 1008.39 1008.60 1008.80 1008.92 1008.93 1008.80 1008.54 1008.18 1007.80 1007.44 1007.19 1007.06 1007.09
1010.49 1010.46 1010.37 1010.26 1010.19 1010.19 1010.26 1010.37 1010.47 1010.49 1010.37 1010.08 1009.63 1009.06 1008.45 1007.90 1007.50 1007.31 1007.35 1007.59 1007.97 1008.41 1008.82 1009.10 1009.24 1009.21 1009.06 1008.85 1008.65 1008.52 1008.48 1008.55 1008.68 1008.82 1008.91 1008.90 1008.74 1008.45 1008.05 1007.61 1007.19 1006.85 1006.64 1006.59
1010.53 1010.40 1010.25 1010.15 1010.14 1010.25 1010.47 1010.75 1011.00 1011.14 1011.11 1010.85 1010.38 1009.75 1009.04 1008.37 1007.85 1007.55 1007.51 1007.70 1008.07 1008.53 1008.97 1009.31 1009.48 1009.47 1009.33 1009.09 1008.84 1008.65 1008.55 1008.55 1008.63 1008.74 1008.80 1008.77 1008.61 1008.31 1007.88 1007.39 1006.90 1006.47 1006.17 1006.02
1010.46 1010.26 1010.09 1010.02 1010.10 1010.35 1010.73 1011.18 1011.60 1011.88 1011.94 1011.73 1011.25 1010.55 1009.73 1008.92 1008.24 1007.79 1007.60 1007.69 1007.98 1008.40 1008.83 1009.18 1009.38 1009.41 1009.28 1009.06 1008.80 1008.58 1008.45 1008.42 1008.47 1008.56 1008.62 1008.60 1008.45 1008.14 1007.71 1007.18 1006.62 1006.10 1005.69 1005.43
1010.35 1010.11 1009.95 1009.93 1010.11 1010.48 1011.02 1011.63 1012.20 1012.62 1012.78 1012.62 1012.14 1011.39 1010.48 1009.52 1008.68 1008.04 1007.68 1007.60 1007.77 1008.10 1008.48 1008.82 1009.04 1009.10 1009.01 1008.82 1008.58 1008.37 1008.24 1008.21 1008.26 1008.35 1008.43 1008.43 1008.30 1008.01 1007.57 1007.02 1006.41 1005.80 1005.28 1004.88
1010.27 1010.04 1009.90 1009.94 1010.20 1010.67 1011.31 1012.04 1012.73 1013.25 1013.49 1013.38 1012.92 1012.15 1011.16 1010.10 1009.10 1008.30 1007.76 1007.51 1007.53 1007.74 1008.05 1008.35 1008.57 1008.66 1008.62 1008.49 1008.30 1008.13 1008.02 1008.00 1008.06 1008.17 1008.28 1008.31 1008.21 1007.95 1007.53 1006.97 1006.31 1005.64 1005.00 1004.48
1010.30 1010.10 1010.00 1010.08 1010.37 1010.88 1011.57 1012.34 1013.07 1013.64 1013.93 1013.87 1013.44 1012.67 1011.67 1010.55 1009.45 1008.52 1007.83 1007.43 1007.30 1007.39 1007.62 1007.88 1008.10 1008.23 1008.24 1008.17 1008.04 1007.92 1007.85 1007.86 1007.94 1008.07 1008.20 1008.26 1008.21 1007.99 1007.60 1007.05 1006.39 1005.66 1004.95 1004.32
1010.46 1010.31 1010.25 1010.33 1010.61 1011.08 1011.72 1012.44 1013.14 1013.69 1013.99 1013.96 1013.57 1012.85 1011.88 1010.76 1009.65 1008.65 1007.87 1007.36 1007.12 1007.11 1007.27 1007.49 1007.71 1007.87 1007.94 1007.93 1007.87 1007.81 1007.78 1007.81 1007.91 1008.05 1008.20 1008.29 1008.28 1008.12 1007.78 1007.28 1006.64 1005.91 1005.16 1004.46
1010.75 1010.66 1010.62 1010.67 1010.87 1011.22 1011.72 1012.31 1012.88 1013.35 1013.61 1013.58 1013.24 1012.60 1011.71 1010.67 1009.60 1008.62 1007.83 1007.27 1006.97 1006.89 1006.99 1007.19 1007.41 1007.60 1007.73 1007.79 1007.79 1007.78 1007.79 1007.84 1007.94 1008.09 1008.24 1008.36 1008.39 1008.30 1008.04 1007.62 1007.05 1006.37 1005.65 1004.94
1011.12 1011.09 1011.04 1011.03 1011.09 1011.28 1011.57 1011.94 1012.33 1012.65 1012.83 1012.79 1012.50 1011.95 1011.18 1010.27 1009.31 1008.42 1007.67 1007.11 1006.79 1006.68 1006.75 1006.94 1007.17 1007.39 1007.57 1007.69 1007.75 1007.79 1007.83 1007.89 1007.99 1008.13 1008.28 1008.41 1008.49 1008.46 1008.30 1008.00 1007.55 1006.98 1006.33 1005.68
1011.48 1011.49 1011.43 1011.33 1011.25 1011.22 1011.27 1011.40 1011.56 1011.71 1011.78 1011.72 1011.46 1011.02 1010.39 1009.64 1008.83 1008.06 1007.38 1006.88 1006.56 1006.45 1006.50 1006.67 1006.91 1007.16 1007.39 1007.56 1007.68 1007.76 1007.82 1007.89 1007.98 1008.11 1008.25 1008.40 1008.52 1008.57 1008.52 1008.35 1008.05 1007.63 1007.13 1006.58
1011.75 1011.80 1011.71 1011.53 1011.30 1011.07 1010.89 1010.78 1010.73 1010.71 1010.67 1010.57 1010.35 1010.01 1009.52 1008.93 1008.27 1007.62 1007.04 1006.59 1006.29 1006.16 1006.19 1006.35 1006.59 1006.85 1007.11 1007.33 1007.50 1007.62 1007.71 1007.79 1007.88 1007.99 1008.13 1008.29 1008.44 1008.57 1008.63 1008.60 1008.47 1008.23 1007.90 1007.51
1011.86 1011.93 1011.83 1011.59 1011.25 1010.88 1010.52 1010.23 1010.00 1009.85 1009.72 1009.59 1009.41 1009.15 1008.78 1008.32 1007.79 1007.25 1006.74 1006.31 1006.01 1005.85 1005.84 1005.96 1006.17 1006.43 1006.71 1006.96 1007.17 1007.34 1007.46 1007.56 1007.66 1007.77 1007.90 1008.07 1008.25 1008.44 1008.60 1008.71 1008.74 1008.69 1008.54 1008.32
1011.78 1011.88 1011.78 1011.52 1011.15 1010.70 1010.26 1009.86 1009.55 1009.31 1009.14 1009.00 1008.85 1008.65 1008.37 1008.00 1007.56 1007.07 1006.58 1006.14 1005.79 1005.57 1005.48 1005.53 1005.68 1005.91 1006.18 1006.45 1006.70 1006.90 1007.07 1007.20 1007.31 1007.43 1007.58 1007.75 1007.97 1008.20 1008.44 1008.66 1008.83 1008.94 1008.96 1008.91
1011.53 1011.65 1011.60 1011.38 1011.04 1010.63 1010.20 1009.80 1009.48 1009.24 1009.07 1008.94 1008.82 1008.66 1008.43 1008.10 1007.69 1007.20 1006.68 1006.18 1005.73 1005.40 1005.19 1005.12 1005.18 1005.35 1005.58 1005.85 1006.11 1006.36 1006.56 1006.73 1006.88 1007.03 1007.19 1007.38 1007.61 1007.88 1008.18 1008.47 1008.74 1008.97 1009.13 1009.21
1011.17 1011.33 1011.35 1011.24 1011.02 1010.73 1010.41 1010.11 1009.86 1009.68 1009.55 1009.46 1009.36 1009.22 1009.00 1008.66 1008.22 1007.68 1007.08 1006.46 1005.89 1005.40 1005.04 1004.83 1004.76 1004.82 1004.98 1005.21 1005.48 1005.74 1005.98 1006.20 1006.39 1006.57 1006.76 1006.98 1007.23 1007.52 1007.84 1008.17 1008.50 1008.80 1009.05 1009.23
1010.81 1011.03 1011.16 1011.20 1011.15 1011.04 1010.90 1010.76 1010.64 1010.56 1010.50 1010.45 1010.37 1010.22 1009.97 1009.59 1009.08 1008.45 1007.74 1007.00 1006.27 1005.61 1005.08 1004.69 1004.46 1004.39 1004.45 1004.62 1004.85 1005.11 1005.37 1005.63 1005.86 1006.09 1006.32 1006.56 1006.83 1007.13 1007.46 1007.81 1008.16 1008.49 1008.79 1009.03
1010.58 1010.87 1011.12 1011.33 1011.49 1011.59 1011.65 1011.69 1011.72 1011.74 1011.74 1011.72 1011.63 1011.45 1011.15 1010.70 1010.11 1009.39 1008.57 1007.69 1006.82 1006.00 1005.29 1004.73 1004.33 1004.11 1004.04 1004.10 1004.27 1004.50 1004.76 1005.03 1005.31 1005.58 1005.85 1006.13 1006.42 1006.74 1007.08 1007.43 1007.78 1008.12 1008.43 1008.71
1010.58 1010.95 1011.33 1011.71 1012.04 1012.33 1012.58 1012.77 1012.91 1013.00 1013.04 1013.01 1012.89 1012.66 1012.29 1011.77 1011.11 1010.30 1009.39 1008.42 1007.43 1006.48 1005.62 1004.90 1004.35 1003.96 1003.75 1003.69 1003.76 1003.92 1004.15 1004.43 1004.72 1005.03 1005.34 1005.66 1005.99 1006.34 1006.69 1007.05 1007.41 1007.75 1008.08 1008.37
1010.87 1011.32 1011.82 1012.32 1012.80 1013.22 1013.58 1013.85 1014.04 1014.15 1014.17 1014.09 1013.90 1013.60 1013.16 1012.57 1011.85 1011.00 1010.05 1009.03 1007.98 1006.95 1006.00 1005.16 1004.47 1003.94 1003.57 1003.37 1003.32 1003.39 1003.56 1003.80 1004.09 1004.42 1004.77 1005.14 1005.52 1005.90 1006.30 1006.69 1007.07 1007.43 1007.77 1008.09
1011.47 1012.00 1012.58 1013.15 1013.69 1014.16 1014.54 1014.81 1014.96 1015.00 1014.93 1014.75 1014.47 1014.07 1013.56 1012.94 1012.20 1011.35 1010.41 1009.40 1008.36 1007.32 1006.33 1005.42 1004.63 1003.97 1003.47 1003.13 1002.95 1002.90 1002.98 1003.16 1003.43 1003.76 1004.14 1004.55 1004.98 1005.43 1005.88 1006.32 1006.75 1007.16 1007.54 1007.90
1012.35 1012.93 1013.53 1014.11 1014.63 1015.05 1015.35 1015.52 1015.54 1015.44 1015.23 1014.91 1014.50 1014.01 1013.44 1012.79 1012.06 1011.26 1010.39 1009.46 1008.49 1007.51 1006.54 1005.61 1004.77 1004.03 1003.42 1002.95 1002.63 1002.46 1002.43 1002.54 1002.75 1003.06 1003.45 1003.90 1004.38 1004.90 1005.42 1005.94 1006.44 1006.92 1007.37 1007.78
1013.40 1013.99 1014.57 1015.08 1015.50 1015.78 1015.92 1015.90 1015.73 1015.43 1015.03 1014.55 1014.00 1013.42 1012.81 1012.16 1011.48 1010.77 1010.01 1009.21 1008.36 1007.48 1006.58 1005.69 1004.84 1004.06 1003.37 1002.80 1002.36 1002.07 1001.94 1001.95 1002.10 1002.37 1002.75 1003.21 1003.74 1004.31 1004.90 1005.50 1006.09 1006.66 1007.19 1007.69
1014.51 1015.07 1015.56 1015.94 1016.19 1016.27 1016.18 1015.93 1015.52 1015.01 1014.41 1013.76 1013.10 1012.44 1011.80 1011.18 1010.57 1009.96 1009.33 1008.67 1007.97 1007.23 1006.44 1005.63 1004.81 1004.03 1003.30 1002.66 1002.14 1001.75 1001.52 1001.43 1001.51 1001.72 1002.07 1002.52 1003.06 1003.67 1004.31 1004.98 1005.65 1006.31 1006.94 1007.53
Thickness
5799 5789 5787 5800 5806 5803 5802 5802 5804 5818 5838 5823 5808 5809 5824 5841 5838 5829 5823 5821 5817 5815 5819 5821 5821 5820 5818 5816 5814 5811 5806 5803 5798 5794 5790 5788 5787 5788 5790 5792 5792 5790 5787 5784
5788 5784 5799 5802 5802 5797 5794 5791 5796 5812 5827 5815 5802 5803 5820 5831 5829 5826 5818 5810 5805 5801 5800 5801 5801 5801 5799 5797 5796 5795 5791 5789 5787 5785 5783 5782 5781 5781 5783 5783 5784 5784 5781 5778
5781 5789 5799 5794 5791 5789 5792 5792 5795 5796 5806 5808 5799 5794 5810 5826 5829 5822 5813 5804 5798 5792 5787 5785 5784 5783 5784 5783 5782 5782 5779 5778 5777 5776 5775 5773 5772 5772 5773 5774 5773 5774 5773 5771
5785 5797 5792 5785 5785 5788 5780 5797 5792 5786 5777 5775 5784 5767 5797 5817 5814 5805 5795 5787 5782 5781 5779 5776 5773 5771 5771 5772 5773 5772 5770 5768 5767 5766 5764 5761 5759 5758 5763 5765 5765 5765 5765 5764
5779 5788 5783 5778 5783 5786 5781 5790 5784 5779 5771 5766 5776 5767 5786 5812 5797 5785 5779 5775 5774 5774 5773 5769 5766 5764 5763 5763 5763 5762 5760 5758 5757 5756 5754 5752 5752 5753 5756 5757 5756 5756 5756 5756
5783 5794 5789 5784 5790 5788 5785 5779 5777 5779 5773 5753 5770 5762 5768 5782 5781 5777 5774 5773 5771 5769 5768 5764 5762 5759 5756 5756 5754 5752 5750 5747 5747 5746 5745 5743 5742 5742 5743 5745 5746 5747 5748 5749
5767 5782 5793 5792 5776 5781 5775 5756 5741 5744 5752 5750 5763 5754 5764 5781 5785 5779 5772 5769 5768 5765 5761 5758 5754 5752 5749 5747 5746 5743 5741 5738 5738 5736 5735 5734 5733 5733 5733 5735 5736 5736 5737 5739
5748 5753 5778 5785 5774 5763 5762 5753 5730 5714 5724 5743 5762 5761 5776 5785 5783 5780 5775 5770 5764 5760 5757 5753 5750 5748 5745 5742 5739 5736 5733 5729 5728 5727 5725 5725 5724 5724 5724 5725 5725 5725 5726 5728
5747 5750 5781 5786 5785 5773 5756 5753 5758 5736 5733 5731 5752 5771 5770 5773 5767 5766 5764 5762 5757 5754 5751 5748 5747 5744 5741 5737 5733 5730 5726 5722 5720 5718 5716 5715 5714 5712 5711 5712 5712 5713 5714 5716
5762 5748 5770 5784 5783 5779 5770 5761 5747 5730 5710 5708 5730 5746 5748 5750 5752 5754 5753 5751 5750 5750 5747 5744 5741 5739 5736 5732 5728 5725 5720 5715 5712 5710 5707 5706 5703 5701 5699 5698 5698 5699 5699 5700
5771 5750 5756 5768 5763 5760 5763 5756 5748 5739 5730 5709 5704 5727 5764 5757 5753 5749 5749 5750 5748 5745 5743 5739 5736 5733 5729 5726 5721 5716 5713 5709 5704 5701 5697 5694 5691 5689 5687 5685 5685 5685 5686 5686
5767 5756 5744 5756 5777 5784 5769 5756 5745 5722 5718 5720 5710 5724 5767 5760 5755 5751 5747 5747 5746 5743 5739 5736 5732 5727 5722 5716 5712 5708 5705 5700 5697 5693 5689 5685 5681 5677 5674 5671 5670 5671 5671 5672
5757 5739 5725 5737 5753 5764 5756 5756 5753 5744 5730 5719 5710 5724 5765 5760 5755 5752 5746 5743 5740 5738 5734 5730 5725 5720 5714 5709 5704 5700 5697 5693 5690 5685 5681 5676 5671 5666 5661 5658 5657 5657 5657 5657
5760 5738 5724 5716 5730 5746 5747 5754 5757 5747 5729 5724 5726 5733 5748 5750 5746 5745 5742 5738 5735 5732 5729 5724 5719 5714 5709 5703 5698 5693 5689 5686 5682 5678 5673 5667 5662 5657 5652 5648 5647 5645 5645 5645
5760 5738 5738 5742 5749 5752 5751 5753 5755 5748 5743 5731 5732 5734 5738 5740 5738 5737 5735 5732 5728 5725 5722 5719 5715 5710 5704 5698 5693 5688 5684 5680 5675 5670 5665 5660 5656 5651 5645 5641 5638 5636 5634 5634
5757 5738 5735 5735 5745 5749 5748 5754 5754 5750 5745 5737 5732 5727 5736 5736 5732 5727 5725 5723 5719 5718 5717 5715 5711 5705 5699 5694 5688 5683 5678 5673 5669 5664 5660 5656 5651 5645 5640 5635 5632 5628 5626 5625
5747 5735 5724 5723 5738 5738 5731 5748 5749 5742 5738 5726 5711 5713 5722 5717 5714 5713 5714 5713 5711 5712 5711 5708 5705 5700 5695 5690 5685 5678 5673 5669 5664 5659 5656 5652 5647 5641 5636 5632 5627 5623 5621 5618
5744 5729 5721 5719 5721 5706 5737 5757 5749 5736 5723 5715 5708 5707 5705 5702 5703 5708 5709 5702 5700 5701 5700 5700 5698 5696 5692 5688 5682 5676 5671 5665 5660 5656 5652 5649 5644 5639 5634 5628 5624 5620 5617 5615
5753 5730 5717 5713 5711 5720 5736 5731 5728 5717 5704 5694 5691 5690 5691 5692 5692 5696 5697 5692 5689 5689 5690 5691 5692 5691 5688 5684 5678 5671 5665 5661 5657 5652 5649 5646 5642 5637 5631 5626 5621 5618 5615 5612
5746 5732 5714 5708 5695 5690 5701 5717 5724 5712 5692 5678 5676 5671 5671 5671 5660 5667 5676 5677 5679 5681 5683 5684 5686 5684 5682 5679 5674 5666 5660 5656 5653 5650 5647 5644 5639 5634 5630 5625 5620 5617 5614 5610
5725 5716 5705 5698 5692 5699 5689 5702 5702 5673 5654 5663 5662 5658 5654 5648 5645 5653 5660 5662 5665 5668 5672 5674 5676 5676 5675 5674 5668 5661 5657 5653 5652 5650 5645 5641 5637 5632 5628 5624 5619 5615 5612 5608
5722 5712 5706 5700 5685 5676 5677 5677 5656 5643 5647 5646 5643 5640 5636 5635 5637 5639 5641 5643 5647 5650 5655 5658 5659 5662 5666 5666 5661 5655 5653 5652 5650 5647 5642 5638 5634 5631 5628 5622 5618 5614 5610 5606
5720 5711 5706 5694 5674 5658 5658 5649 5640 5636 5631 5628 5625 5623 5620 5619 5620 5621 5622 5625 5627 5630 5634 5639 5642 5645 5652 5655 5654 5649 5649 5648 5645 5642 5638 5634 5631 5627 5625 5620 5616 5612 5608 5605
5711 5706 5696 5680 5660 5652 5643 5634 5627 5622 5616 5613 5611 5608 5606 5604 5604 5604 5606 5607 5609 5612 5615 5620 5624 5628 5634 5639 5644 5644 5644 5644 5641 5637 5633 5630 5627 5623 5621 5618 5615 5612 5608 5606
5677 5681 5672 5659 5639 5636 5631 5619 5613 5608 5605 5601 5598 5595 5592 5590 5590 5590 5590 5591 5591 5594 5598 5602 5606 5611 5619 5625 5629 5637 5639 5638 5635 5632 5629 5626 5624 5621 5618 5615 5613 5612 5610 5608
5648 5639 5634 5623 5614 5607 5605 5602 5597 5592 5589 5586 5584 5582 5580 5576 5575 5575 5575 5576 5576 5578 5581 5585 5590 5595 5602 5611 5618 5625 5632 5632 5630 5627 5625 5623 5621 5618 5615 5611 5607 5601 5603 5601